| time (UTC) | temp F | wind direction | speed knots | gust knots | rain 1hr in | rain 24hr in | rain mn in | humidity % | barometer mb |
| 20260509225004 | 50 | 298 | 0.9 | 0.0 | 0.00 | 0.00 | 0.00 | 95 | 1007.2 |
| 20260509224504 | 50 | 298 | 1.7 | 0.0 | 0.00 | 0.00 | 0.00 | 95 | 1007.1 |
| 20260509224003 | 50 | 298 | 2.6 | 0.0 | 0.00 | 0.00 | 0.00 | 95 | 1007.2 |
| 20260509223504 | 50 | 279 | 1.7 | 0.0 | 0.00 | 0.00 | 0.00 | 95 | 1007.2 |
| 20260509223004 | 50 | 222 | 0.9 | 0.0 | 0.00 | 0.00 | 0.00 | 96 | 1007.2 |
| 20260509222503 | 50 | 221 | 0.9 | 0.0 | 0.00 | 0.00 | 0.00 | 96 | 1007.2 |
| 20260509222005 | 50 | 150 | 1.7 | 0.0 | 0.00 | 0.00 | 0.00 | 96 | 1007.1 |
| 20260509221503 | 50 | 159 | 2.6 | 0.0 | 0.00 | 0.00 | 0.00 | 96 | 1007.2 |
| 20260509221002 | 50 | 133 | 4.3 | 0.0 | 0.00 | 0.00 | 0.00 | 96 | 1007.1 |
| 20260509220502 | 50 | 133 | 5.2 | 0.0 | 0.00 | 0.00 | 0.00 | 96 | 1007.1 |
| 20260509215602 | 49 | 144 | 3.5 | 0.0 | 0.00 | 0.00 | 0.00 | 95 | 1007.2 |
| 20260509215100 | 49 | 132 | 4.3 | 0.0 | 0.00 | 0.00 | 0.00 | 95 | 1007.2 |
| 20260509214559 | 49 | 153 | 5.2 | 0.0 | 0.00 | 0.00 | 0.00 | 95 | 1007.3 |
| 20260509214058 | 49 | 139 | 7.0 | 0.0 | 0.00 | 0.00 | 0.00 | 95 | 1007.5 |
| 20260509213557 | 49 | 140 | 7.0 | 0.0 | 0.00 | 0.00 | 0.00 | 95 | 1007.5 |
| 20260509213058 | 49 | 115 | 6.1 | 0.0 | 0.00 | 0.00 | 0.00 | 95 | 1007.5 |
| 20260509212556 | 49 | 140 | 5.2 | 0.0 | 0.00 | 0.00 | 0.00 | 95 | 1007.5 |
| 20260509212056 | 49 | 137 | 5.2 | 0.0 | 0.00 | 0.00 | 0.00 | 95 | 1007.5 |
| 20260509211600 | 49 | 123 | 5.2 | 0.0 | 0.00 | 0.00 | 0.00 | 95 | 1007.6 |
| 20260509211056 | 49 | 134 | 5.2 | 0.0 | 0.00 | 0.00 | 0.00 | 95 | 1007.6 |
| 20260509210556 | 49 | 148 | 5.2 | 0.0 | 0.00 | 0.00 | 0.00 | 95 | 1007.6 |
| 20260509210106 | 49 | 148 | 5.2 | 0.0 | 0.00 | 0.00 | 0.00 | 95 | 1007.7 |
| 20260509205554 | 49 | 148 | 5.2 | 0.0 | 0.00 | 0.00 | 0.00 | 95 | 1007.6 |
| 20260509205054 | 49 | 118 | 5.2 | 0.0 | 0.00 | 0.00 | 0.00 | 95 | 1007.7 |
| 20260509204553 | 49 | 136 | 6.1 | 0.0 | 0.00 | 0.00 | 0.00 | 95 | 1007.7 |
| 20260509204052 | 49 | 145 | 6.1 | 0.0 | 0.00 | 0.00 | 0.00 | 95 | 1007.8 |
| 20260509203554 | 49 | 151 | 5.2 | 0.0 | 0.00 | 0.00 | 0.00 | 95 | 1007.9 |
| 20260509203052 | 49 | 157 | 4.3 | 0.0 | 0.00 | 0.00 | 0.00 | 95 | 1007.9 |
| 20260509202553 | 49 | 143 | 3.5 | 0.0 | 0.00 | 0.00 | 0.00 | 95 | 1008.0 |
| 20260509202050 | 49 | 132 | 2.6 | 0.0 | 0.00 | 0.00 | 0.00 | 95 | 1008.0 |
| 20260509201549 | 49 | 204 | 2.6 | 0.0 | 0.00 | 0.00 | 0.00 | 95 | 1008.0 |
| 20260509201048 | 48 | 134 | 2.6 | 0.0 | 0.00 | 0.00 | 0.00 | 95 | 1008.2 |
| 20260509200547 | 48 | 205 | 1.7 | 0.0 | 0.00 | 0.00 | 0.00 | 95 | 1008.5 |
| 20260509200050 | 48 | 196 | 4.3 | 0.0 | 0.00 | 0.00 | 0.00 | 95 | 1008.5 |
| 20260509195550 | 48 | 171 | 5.2 | 0.0 | 0.00 | 0.00 | 0.00 | 95 | 1008.5 |
| 20260509195045 | 48 | 132 | 4.3 | 0.0 | 0.00 | 0.00 | 0.00 | 95 | 1008.6 |
| 20260509194544 | 48 | 153 | 3.5 | 0.0 | 0.00 | 0.00 | 0.00 | 95 | 1008.7 |
| 20260509194044 | 48 | 163 | 1.7 | 0.0 | 0.00 | 0.00 | 0.00 | 95 | 1008.7 |
| 20260509193544 | 48 | 155 | 3.5 | 0.0 | 0.00 | 0.00 | 0.00 | 95 | 1008.8 |
| 20260509193042 | 48 | 142 | 3.5 | 0.0 | 0.00 | 0.00 | 0.00 | 95 | 1008.8 |
| 20260509192542 | 48 | 130 | 3.5 | 0.0 | 0.00 | 0.00 | 0.00 | 95 | 1008.8 |
| 20260509192043 | 48 | 137 | 2.6 | 0.0 | 0.00 | 0.00 | 0.00 | 95 | 1008.8 |
| 20260509191543 | 48 | 159 | 2.6 | 0.0 | 0.00 | 0.00 | 0.00 | 95 | 1008.8 |
| 20260509191044 | 48 | 158 | 2.6 | 0.0 | 0.00 | 0.00 | 0.00 | 95 | 1008.7 |
| 20260509190545 | 48 | 158 | 3.5 | 0.0 | 0.00 | 0.00 | 0.00 | 95 | 1008.7 |
| 20260509190048 | 48 | 151 | 3.5 | 0.0 | 0.00 | 0.00 | 0.00 | 95 | 1008.7 |
| 20260509185541 | 48 | 113 | 4.3 | 0.0 | 0.00 | 0.00 | 0.00 | 95 | 1008.8 |
| 20260509185041 | 47 | 150 | 4.3 | 0.0 | 0.00 | 0.00 | 0.00 | 95 | 1008.8 |
| 20260509184540 | 47 | 130 | 2.6 | 0.0 | 0.00 | 0.00 | 0.00 | 95 | 1008.8 |
| 20260509184039 | 47 | 123 | 3.5 | 0.0 | 0.00 | 0.00 | 0.00 | 95 | 1008.9 |
| 20260509183539 | 47 | 144 | 4.3 | 0.0 | 0.00 | 0.00 | 0.00 | 95 | 1008.8 |
| 20260509183039 | 47 | 132 | 6.1 | 0.0 | 0.00 | 0.00 | 0.00 | 94 | 1008.8 |
| 20260509182538 | 47 | 126 | 7.0 | 0.0 | 0.00 | 0.00 | 0.00 | 95 | 1008.8 |
| 20260509182038 | 47 | 144 | 6.1 | 0.0 | 0.00 | 0.00 | 0.00 | 95 | 1008.8 |
| 20260509181537 | 47 | 123 | 5.2 | 0.0 | 0.00 | 0.00 | 0.00 | 95 | 1008.9 |
| 20260509181037 | 47 | 143 | 3.5 | 0.0 | 0.00 | 0.00 | 0.00 | 95 | 1008.9 |
| 20260509180537 | 47 | 142 | 2.6 | 0.0 | 0.00 | 0.00 | 0.00 | 94 | 1008.9 |
| 20260509180037 | 47 | 128 | 3.5 | 0.0 | 0.00 | 0.00 | 0.00 | 94 | 1009.0 |
| 20260509175536 | 47 | 126 | 4.3 | 0.0 | 0.00 | 0.00 | 0.00 | 94 | 1009.1 |
| 20260509175036 | 47 | 123 | 2.6 | 0.0 | 0.00 | 0.00 | 0.00 | 94 | 1009.0 |
| 20260509174538 | 47 | 160 | 2.6 | 0.0 | 0.00 | 0.00 | 0.00 | 94 | 1009.0 |
| 20260509174035 | 47 | 163 | 2.6 | 0.0 | 0.00 | 0.00 | 0.00 | 94 | 1009.2 |
| 20260509173534 | 47 | 134 | 1.7 | 0.0 | 0.00 | 0.00 | 0.00 | 94 | 1009.2 |
| 20260509173055 | 47 | 161 | 2.6 | 0.0 | 0.00 | 0.00 | 0.00 | 94 | 1009.3 |
| 20260509172533 | 47 | 143 | 3.5 | 0.0 | 0.00 | 0.00 | 0.00 | 94 | 1009.4 |
| 20260509172035 | 47 | 140 | 2.6 | 0.0 | 0.00 | 0.00 | 0.00 | 94 | 1009.3 |
| 20260509171539 | 47 | 49 | 1.7 | 0.0 | 0.00 | 0.00 | 0.00 | 95 | 1009.4 |
| 20260509171032 | 47 | 142 | 3.5 | 0.0 | 0.00 | 0.00 | 0.00 | 95 | 1009.4 |
| 20260509170531 | 46 | 118 | 4.3 | 0.0 | 0.00 | 0.00 | 0.00 | 95 | 1009.4 |
| 20260509170032 | 46 | 144 | 4.3 | 0.0 | 0.00 | 0.00 | 0.00 | 95 | 1009.6 |
| 20260509165529 | 46 | 134 | 2.6 | 0.0 | 0.00 | 0.00 | 0.00 | 95 | 1009.6 |
| 20260509165028 | 46 | 123 | 1.7 | 0.0 | 0.00 | 0.00 | 0.00 | 94 | 1009.8 |
| 20260509164528 | 46 | 136 | 1.7 | 0.0 | 0.00 | 0.00 | 0.00 | 94 | 1009.9 |
| 20260509164026 | 46 | 230 | 0.9 | 0.0 | 0.00 | 0.00 | 0.00 | 93 | 1009.9 |
| 20260509163526 | 46 | 220 | 1.7 | 0.0 | 0.00 | 0.00 | 0.00 | 94 | 1010.1 |
| 20260509163026 | 46 | 225 | 1.7 | 0.0 | 0.00 | 0.00 | 0.00 | 93 | 1010.2 |
| 20260509162526 | 46 | 223 | 0.9 | 0.0 | 0.00 | 0.00 | 0.00 | 94 | 1010.1 |
| 20260509162026 | 46 | 157 | 1.7 | 0.0 | 0.00 | 0.00 | 0.00 | 95 | 1010.0 |
| 20260509161525 | 46 | 144 | 5.2 | 0.0 | 0.00 | 0.00 | 0.00 | 95 | 1010.0 |
| 20260509161024 | 46 | 138 | 7.8 | 0.0 | 0.00 | 0.00 | 0.00 | 94 | 1010.1 |
| 20260509160524 | 45 | 150 | 9.6 | 0.0 | 0.00 | 0.00 | 0.00 | 95 | 1010.2 |
| 20260509160024 | 45 | 138 | 7.8 | 0.0 | 0.00 | 0.00 | 0.00 | 94 | 1010.2 |
| 20260509155521 | 45 | 137 | 7.0 | 0.0 | 0.00 | 0.00 | 0.00 | 94 | 1010.3 |
| 20260509155021 | 45 | 146 | 6.1 | 0.0 | 0.00 | 0.00 | 0.00 | 94 | 1010.6 |
| 20260509154520 | 45 | 136 | 3.5 | 0.0 | 0.00 | 0.00 | 0.00 | 94 | 1010.6 |
| 20260509154018 | 44 | 196 | 0.9 | 0.0 | 0.00 | 0.00 | 0.00 | 93 | 1010.9 |
| 20260509153518 | 44 | 178 | 0.9 | 0.0 | 0.00 | 0.00 | 0.00 | 93 | 1010.9 |
| 20260509153029 | 44 | 244 | 0.9 | 0.0 | 0.00 | 0.00 | 0.00 | 93 | 1010.9 |
| 20260509152518 | 44 | 159 | 0.9 | 0.0 | 0.00 | 0.00 | 0.00 | 94 | 1010.9 |
| 20260509152017 | 44 | 146 | 0.9 | 0.0 | 0.00 | 0.00 | 0.00 | 93 | 1010.8 |
| 20260509151516 | 44 | 198 | 0.0 | 0.0 | 0.00 | 0.00 | 0.00 | 93 | 1010.8 |
| 20260509151020 | 44 | 215 | 0.9 | 0.0 | 0.00 | 0.00 | 0.00 | 93 | 1011.0 |
| 20260509150516 | 44 | 215 | 0.9 | 0.0 | 0.00 | 0.00 | 0.00 | 93 | 1011.0 |
| 20260509150016 | 44 | 153 | 1.7 | 0.0 | 0.00 | 0.00 | 0.00 | 93 | 1011.0 |
| 20260509145516 | 44 | 136 | 1.7 | 0.0 | 0.00 | 0.00 | 0.00 | 93 | 1010.9 |
| 20260509145016 | 44 | 118 | 1.7 | 0.0 | 0.00 | 0.00 | 0.00 | 93 | 1011.0 |
| 20260509144516 | 44 | 230 | 1.7 | 0.0 | 0.00 | 0.00 | 0.00 | 92 | 1011.1 |
| 20260509144015 | 44 | 199 | 2.6 | 0.0 | 0.00 | 0.00 | 0.00 | 92 | 1010.9 |
| 20260509143522 | 44 | 137 | 2.6 | 0.0 | 0.00 | 0.00 | 0.00 | 93 | 1010.9 |
| 20260509143018 | 44 | 148 | 0.9 | 0.0 | 0.00 | 0.00 | 0.00 | 93 | 1010.9 |
| 20260509142514 | 44 | 157 | 0.9 | 0.0 | 0.00 | 0.00 | 0.00 | 92 | 1010.9 |
| 20260509142014 | 44 | 156 | 1.7 | 0.0 | 0.00 | 0.00 | 0.00 | 92 | 1011.0 |
| 20260509141514 | 44 | 161 | 0.9 | 0.0 | 0.00 | 0.00 | 0.00 | 92 | 1010.9 |
| 20260509141018 | 44 | 139 | 0.9 | 0.0 | 0.00 | 0.00 | 0.00 | 93 | 1010.9 |
| 20260509140515 | 44 | 186 | 0.9 | 0.0 | 0.00 | 0.00 | 0.00 | 93 | 1010.9 |
| 20260509140015 | 44 | 147 | 1.7 | 0.0 | 0.00 | 0.00 | 0.00 | 92 | 1010.9 |
| 20260509135513 | 44 | 154 | 1.7 | 0.0 | 0.00 | 0.00 | 0.00 | 92 | 1010.9 |
| 20260509135014 | 44 | 140 | 0.9 | 0.0 | 0.00 | 0.00 | 0.00 | 92 | 1010.9 |
| 20260509134512 | 44 | 148 | 0.9 | 0.0 | 0.00 | 0.00 | 0.00 | 92 | 1010.9 |
| 20260509134011 | 43 | 215 | 0.0 | 0.0 | 0.00 | 0.00 | 0.00 | 91 | 1010.9 |
| 20260509133510 | 43 | 215 | 0.0 | 0.0 | 0.00 | 0.00 | 0.00 | 91 | 1011.0 |
| 20260509133010 | 43 | 215 | 0.0 | 0.0 | 0.00 | 0.00 | 0.00 | 90 | 1011.2 |
| 20260509132510 | 43 | 215 | 0.0 | 0.0 | 0.00 | 0.00 | 0.00 | 90 | 1011.2 |
| 20260509132010 | 43 | 219 | 0.0 | 0.0 | 0.00 | 0.00 | 0.00 | 90 | 1011.3 |
| 20260509131510 | 43 | 219 | 0.0 | 0.0 | 0.00 | 0.00 | 0.00 | 90 | 1011.3 |
| 20260509131010 | 43 | 219 | 0.0 | 0.0 | 0.00 | 0.00 | 0.00 | 89 | 1011.3 |
| 20260509130512 | 43 | 192 | 0.0 | 0.0 | 0.00 | 0.00 | 0.00 | 89 | 1011.2 |
| 20260509130030 | 43 | 140 | 0.0 | 0.0 | 0.00 | 0.00 | 0.00 | 89 | 1011.2 |
| 20260509125510 | 43 | 219 | 0.0 | 0.0 | 0.00 | 0.00 | 0.00 | 88 | 1011.2 |
| 20260509125009 | 43 | 209 | 0.0 | 0.0 | 0.00 | 0.00 | 0.00 | 87 | 1011.1 |
| 20260509124525 | 43 | 217 | 0.0 | 0.0 | 0.00 | 0.00 | 0.00 | 88 | 1011.2 |
| 20260509124008 | 43 | 217 | 1.7 | 0.0 | 0.00 | 0.00 | 0.00 | 87 | 1011.1 |
| 20260509123508 | 43 | 133 | 1.7 | 0.0 | 0.00 | 0.00 | 0.00 | 87 | 1011.1 |
| 20260509123010 | 43 | 108 | 0.9 | 0.0 | 0.00 | 0.00 | 0.00 | 87 | 1011.2 |
| 20260509122505 | 43 | 187 | 0.9 | 0.0 | 0.00 | 0.00 | 0.00 | 87 | 1011.1 |
| 20260509122006 | 43 | 134 | 1.7 | 0.0 | 0.00 | 0.00 | 0.00 | 86 | 1011.1 |
| 20260509121504 | 43 | 142 | 0.9 | 0.0 | 0.00 | 0.00 | 0.00 | 86 | 1011.3 |
| 20260509121004 | 42 | 147 | 0.9 | 0.0 | 0.00 | 0.00 | 0.00 | 85 | 1011.3 |
| 20260509120503 | 42 | 119 | 1.7 | 0.0 | 0.00 | 0.00 | 0.00 | 85 | 1011.3 |
| 20260509120007 | 42 | 54 | 1.7 | 0.0 | 0.00 | 0.00 | 0.00 | 85 | 1011.3 |
| 20260509115501 | 42 | 57 | 1.7 | 0.0 | 0.00 | 0.00 | 0.00 | 85 | 1011.7 |
| 20260509115005 | 41 | 53 | 1.7 | 0.0 | 0.00 | 0.00 | 0.00 | 86 | 1011.7 |
| 20260509114501 | 41 | 101 | 1.7 | 0.0 | 0.00 | 0.00 | 0.00 | 86 | 1011.7 |
| 20260509114100 | 41 | 101 | 1.7 | 0.0 | 0.00 | 0.00 | 0.00 | 85 | 1011.8 |
| 20260509113600 | 41 | 93 | 1.7 | 0.0 | 0.00 | 0.00 | 0.00 | 86 | 1011.8 |
| 20260509113134 | 41 | 92 | 1.7 | 0.0 | 0.00 | 0.00 | 0.00 | 86 | 1011.7 |
| 20260509112600 | 41 | 86 | 2.6 | 0.0 | 0.00 | 0.00 | 0.00 | 87 | 1011.7 |
| 20260509112058 | 41 | 98 | 4.3 | 0.0 | 0.00 | 0.00 | 0.00 | 88 | 1011.8 |
| 20260509111557 | 40 | 53 | 4.3 | 0.0 | 0.00 | 0.00 | 0.00 | 90 | 1011.8 |
| 20260509111056 | 39 | 26 | 3.5 | 0.0 | 0.00 | 0.00 | 0.00 | 93 | 1011.9 |
| 20260509110554 | 37 | 5 | 0.9 | 0.0 | 0.00 | 0.00 | 0.00 | 94 | 1011.9 |
| 20260509110059 | 36 | 134 | 0.9 | 0.0 | 0.00 | 0.00 | 0.00 | 93 | 1011.7 |
| 20260509105551 | 36 | 138 | 1.7 | 0.0 | 0.00 | 0.00 | 0.00 | 92 | 1011.6 |
| 20260509105052 | 36 | 138 | 0.9 | 0.0 | 0.00 | 0.00 | 0.00 | 92 | 1011.3 |
| 20260509104551 | 35 | 137 | 0.0 | 0.0 | 0.00 | 0.00 | 0.00 | 92 | 1011.3 |
| 20260509104050 | 35 | 137 | 0.0 | 0.0 | 0.00 | 0.00 | 0.00 | 92 | 1011.4 |
| 20260509103549 | 35 | 137 | 1.7 | 0.0 | 0.00 | 0.00 | 0.00 | 92 | 1011.3 |
| 20260509103050 | 35 | 138 | 3.5 | 0.0 | 0.00 | 0.00 | 0.00 | 92 | 1011.2 |
| 20260509102548 | 35 | 135 | 3.5 | 0.0 | 0.00 | 0.00 | 0.00 | 92 | 1011.1 |
| 20260509102047 | 35 | 126 | 3.5 | 0.0 | 0.00 | 0.00 | 0.00 | 92 | 1011.2 |
| 20260509101558 | 35 | 139 | 3.5 | 0.0 | 0.00 | 0.00 | 0.00 | 92 | 1011.4 |
| 20260509101047 | 34 | 136 | 3.5 | 0.0 | 0.00 | 0.00 | 0.00 | 92 | 1011.5 |
| 20260509100546 | 34 | 133 | 2.6 | 0.0 | 0.00 | 0.00 | 0.00 | 92 | 1011.5 |
| 20260509100046 | 34 | 135 | 0.9 | 0.0 | 0.00 | 0.00 | 0.00 | 92 | 1011.5 |
| 20260509095546 | 34 | 136 | 0.9 | 0.0 | 0.00 | 0.00 | 0.00 | 91 | 1011.6 |
| 20260509095046 | 34 | 136 | 1.7 | 0.0 | 0.00 | 0.00 | 0.00 | 91 | 1011.7 |
| 20260509094546 | 34 | 128 | 1.7 | 0.0 | 0.00 | 0.00 | 0.00 | 92 | 1011.5 |
| 20260509094045 | 34 | 128 | 2.6 | 0.0 | 0.00 | 0.00 | 0.00 | 92 | 1011.3 |
| 20260509093545 | 34 | 127 | 2.6 | 0.0 | 0.00 | 0.00 | 0.00 | 92 | 1011.5 |
| 20260509093046 | 33 | 360 | 2.6 | 0.0 | 0.00 | 0.00 | 0.00 | 92 | 1011.4 |
| 20260509092545 | 33 | 360 | 2.6 | 0.0 | 0.00 | 0.00 | 0.00 | 92 | 1011.6 |
| 20260509092044 | 33 | 360 | 2.6 | 0.0 | 0.00 | 0.00 | 0.00 | 92 | 1011.7 |
| 20260509091545 | 33 | 360 | 3.5 | 0.0 | 0.00 | 0.00 | 0.00 | 92 | 1011.7 |
| 20260509091045 | 33 | 360 | 3.5 | 0.0 | 0.00 | 0.00 | 0.00 | 92 | 1011.7 |
| 20260509090544 | 32 | 360 | 3.5 | 0.0 | 0.00 | 0.00 | 0.00 | 92 | 1011.7 |
| 20260509090045 | 32 | 360 | 2.6 | 0.0 | 0.00 | 0.00 | 0.00 | 92 | 1011.8 |
| 20260509085543 | 32 | 360 | 2.6 | 0.0 | 0.00 | 0.00 | 0.00 | 92 | 1011.9 |
| 20260509085047 | 32 | 360 | 2.6 | 0.0 | 0.00 | 0.00 | 0.00 | 91 | 1011.7 |
| 20260509084544 | 32 | 360 | 2.6 | 0.0 | 0.00 | 0.00 | 0.00 | 91 | 1011.7 |
| 20260509084043 | 32 | 360 | 2.6 | 0.0 | 0.00 | 0.00 | 0.00 | 91 | 1011.7 |
| 20260509083545 | 32 | 360 | 2.6 | 0.0 | 0.00 | 0.00 | 0.00 | 91 | 1011.7 |
| 20260509083044 | 32 | 360 | 2.6 | 0.0 | 0.00 | 0.00 | 0.00 | 91 | 1011.7 |
| 20260509082541 | 31 | 360 | 3.5 | 0.0 | 0.00 | 0.00 | 0.00 | 90 | 1011.8 |
| 20260509082041 | 32 | 360 | 4.3 | 0.0 | 0.00 | 0.00 | 0.00 | 90 | 1011.7 |
| 20260509081541 | 32 | 145 | 3.5 | 0.0 | 0.00 | 0.00 | 0.00 | 90 | 1011.7 |
| 20260509081043 | 32 | 138 | 3.5 | 0.0 | 0.00 | 0.00 | 0.00 | 90 | 1011.6 |
| 20260509080541 | 32 | 136 | 3.5 | 0.0 | 0.00 | 0.00 | 0.00 | 90 | 1011.5 |
| 20260509080044 | 32 | 154 | 3.5 | 0.0 | 0.00 | 0.00 | 0.00 | 89 | 1011.4 |
| 20260509075538 | 32 | 138 | 3.5 | 0.0 | 0.00 | 0.00 | 0.00 | 89 | 1011.5 |
| 20260509075038 | 32 | 138 | 3.5 | 0.0 | 0.00 | 0.00 | 0.00 | 89 | 1011.4 |
| 20260509074539 | 32 | 141 | 3.5 | 0.0 | 0.00 | 0.00 | 0.00 | 89 | 1011.4 |
| 20260509074040 | 32 | 142 | 4.3 | 0.0 | 0.00 | 0.00 | 0.00 | 89 | 1011.4 |
| 20260509073536 | 32 | 143 | 4.3 | 0.0 | 0.00 | 0.00 | 0.00 | 89 | 1011.3 |
| 20260509073041 | 32 | 144 | 4.3 | 0.0 | 0.00 | 0.00 | 0.00 | 88 | 1011.4 |
| 20260509072538 | 33 | 144 | 3.5 | 0.0 | 0.00 | 0.00 | 0.00 | 89 | 1011.3 |
| 20260509072036 | 33 | 360 | 3.5 | 0.0 | 0.00 | 0.00 | 0.00 | 89 | 1011.3 |
| 20260509071533 | 33 | 360 | 2.6 | 0.0 | 0.00 | 0.00 | 0.00 | 89 | 1011.3 |
| 20260509071031 | 33 | 360 | 1.7 | 0.0 | 0.00 | 0.00 | 0.00 | 89 | 1011.4 |
| 20260509070531 | 33 | 360 | 1.7 | 0.0 | 0.00 | 0.00 | 0.00 | 88 | 1011.4 |
| 20260509070031 | 33 | 360 | 2.6 | 0.0 | 0.00 | 0.00 | 0.00 | 88 | 1011.4 |
| 20260509065531 | 33 | 360 | 1.7 | 0.0 | 0.00 | 0.00 | 0.00 | 88 | 1011.4 |
| 20260509065030 | 33 | 360 | 1.7 | 0.0 | 0.00 | 0.00 | 0.00 | 88 | 1011.4 |
| 20260509064530 | 34 | 360 | 1.7 | 0.0 | 0.00 | 0.00 | 0.00 | 88 | 1011.3 |
| 20260509064032 | 34 | 360 | 2.6 | 0.0 | 0.00 | 0.00 | 0.00 | 88 | 1011.3 |
| 20260509063529 | 34 | 360 | 2.6 | 0.0 | 0.00 | 0.00 | 0.00 | 87 | 1011.5 |
| 20260509063034 | 34 | 360 | 2.6 | 0.0 | 0.00 | 0.00 | 0.00 | 87 | 1011.5 |
| 20260509062527 | 34 | 360 | 2.6 | 0.0 | 0.00 | 0.00 | 0.00 | 88 | 1011.6 |
| 20260509062027 | 34 | 360 | 2.6 | 0.0 | 0.00 | 0.00 | 0.00 | 88 | 1011.7 |
| 20260509061530 | 34 | 360 | 2.6 | 0.0 | 0.00 | 0.00 | 0.00 | 87 | 1011.9 |
| 20260509061026 | 34 | 360 | 2.6 | 0.0 | 0.00 | 0.00 | 0.00 | 88 | 1012.0 |
| 20260509060526 | 34 | 360 | 2.6 | 0.0 | 0.00 | 0.00 | 0.00 | 89 | 1011.9 |
| 20260509060026 | 34 | 360 | 2.6 | 0.0 | 0.00 | 0.00 | 0.00 | 89 | 1012.0 |
| 20260509055525 | 34 | 360 | 2.6 | 0.0 | 0.00 | 0.00 | 0.00 | 89 | 1012.0 |
| 20260509055025 | 34 | 360 | 2.6 | 0.0 | 0.00 | 0.00 | 0.00 | 91 | 1012.0 |
| 20260509054524 | 34 | 360 | 1.7 | 0.0 | 0.00 | 0.00 | 0.00 | 90 | 1012.0 |
| 20260509054027 | 33 | 360 | 1.7 | 0.0 | 0.00 | 0.00 | 0.00 | 88 | 1012.1 |
| 20260509053523 | 33 | 360 | 2.6 | 0.0 | 0.00 | 0.00 | 0.00 | 88 | 1012.1 |
| 20260509053023 | 33 | 360 | 2.6 | 0.0 | 0.00 | 0.00 | 0.00 | 88 | 1012.2 |
| 20260509052523 | 33 | 360 | 2.6 | 0.0 | 0.00 | 0.00 | 0.00 | 88 | 1012.2 |
| 20260509052022 | 33 | 360 | 2.6 | 0.0 | 0.00 | 0.00 | 0.00 | 87 | 1012.3 |
| 20260509051523 | 33 | 360 | 2.6 | 0.0 | 0.00 | 0.00 | 0.00 | 87 | 1012.3 |
| 20260509051021 | 34 | 360 | 2.6 | 0.0 | 0.00 | 0.00 | 0.00 | 87 | 1012.3 |
| 20260509050522 | 34 | 360 | 2.6 | 0.0 | 0.00 | 0.00 | 0.00 | 86 | 1012.3 |
| 20260509050025 | 34 | 360 | 2.6 | 0.0 | 0.00 | 0.00 | 0.00 | 86 | 1012.2 |
| 20260509045518 | 34 | 360 | 2.6 | 0.0 | 0.00 | 0.00 | 0.00 | 86 | 1012.1 |
| 20260509045018 | 34 | 360 | 2.6 | 0.0 | 0.00 | 0.00 | 0.00 | 86 | 1012.2 |
| 20260509044517 | 34 | 360 | 1.7 | 0.0 | 0.00 | 0.00 | 0.00 | 87 | 1012.2 |
| 20260509044016 | 34 | 360 | 1.7 | 0.0 | 0.00 | 0.00 | 0.00 | 87 | 1012.1 |
| 20260509043515 | 34 | 360 | 2.6 | 0.0 | 0.00 | 0.00 | 0.00 | 86 | 1012.1 |
| 20260509043014 | 34 | 360 | 3.5 | 0.0 | 0.00 | 0.00 | 0.00 | 85 | 1012.0 |
| 20260509042514 | 34 | 360 | 3.5 | 0.0 | 0.00 | 0.00 | 0.00 | 86 | 1011.9 |
| 20260509042013 | 34 | 360 | 3.5 | 0.0 | 0.00 | 0.00 | 0.00 | 85 | 1011.8 |
| 20260509041519 | 34 | 360 | 3.5 | 0.0 | 0.00 | 0.00 | 0.00 | 85 | 1011.8 |
| 20260509041012 | 35 | 360 | 3.5 | 0.0 | 0.00 | 0.00 | 0.00 | 85 | 1011.8 |
| 20260509040514 | 35 | 360 | 3.5 | 0.0 | 0.00 | 0.00 | 0.00 | 85 | 1011.8 |
| 20260509040010 | 35 | 360 | 3.5 | 0.0 | 0.00 | 0.00 | 0.00 | 85 | 1011.8 |
| 20260509035509 | 35 | 360 | 4.3 | 0.0 | 0.00 | 0.00 | 0.00 | 85 | 1011.7 |
| 20260509035009 | 35 | 360 | 3.5 | 0.0 | 0.00 | 0.00 | 0.00 | 84 | 1011.7 |
| 20260509034509 | 35 | 360 | 3.5 | 0.0 | 0.00 | 0.00 | 0.00 | 84 | 1011.7 |
| 20260509034012 | 36 | 360 | 4.3 | 0.0 | 0.00 | 0.00 | 0.00 | 84 | 1011.6 |
| 20260509033508 | 36 | 360 | 4.3 | 0.0 | 0.00 | 0.00 | 0.00 | 83 | 1011.6 |
| 20260509033009 | 36 | 139 | 4.3 | 0.0 | 0.00 | 0.00 | 0.00 | 83 | 1011.5 |
| 20260509032508 | 36 | 140 | 4.3 | 0.0 | 0.00 | 0.00 | 0.00 | 83 | 1011.5 |
| 20260509032007 | 36 | 137 | 4.3 | 0.0 | 0.00 | 0.00 | 0.00 | 83 | 1011.5 |
| 20260509031521 | 36 | 138 | 4.3 | 0.0 | 0.00 | 0.00 | 0.00 | 82 | 1011.5 |
| 20260509031008 | 37 | 137 | 4.3 | 0.0 | 0.00 | 0.00 | 0.00 | 82 | 1011.5 |
| 20260509030508 | 37 | 138 | 4.3 | 0.0 | 0.00 | 0.00 | 0.00 | 82 | 1011.6 |
| 20260509030009 | 37 | 134 | 5.2 | 0.0 | 0.00 | 0.00 | 0.00 | 82 | 1011.6 |
| 20260509025507 | 37 | 136 | 5.2 | 0.0 | 0.00 | 0.00 | 0.00 | 81 | 1011.7 |
| 20260509025006 | 37 | 136 | 4.3 | 0.0 | 0.00 | 0.00 | 0.00 | 80 | 1011.7 |
| 20260509024506 | 38 | 138 | 4.3 | 0.0 | 0.00 | 0.00 | 0.00 | 79 | 1011.6 |
| 20260509024006 | 38 | 142 | 4.3 | 0.0 | 0.00 | 0.00 | 0.00 | 78 | 1011.5 |
| 20260509023506 | 38 | 142 | 4.3 | 0.0 | 0.00 | 0.00 | 0.00 | 79 | 1011.5 |
| 20260509023005 | 39 | 142 | 4.3 | 0.0 | 0.00 | 0.00 | 0.00 | 78 | 1011.5 |
| 20260509022504 | 39 | 142 | 3.5 | 0.0 | 0.00 | 0.00 | 0.00 | 77 | 1011.5 |
| 20260509022005 | 39 | 139 | 3.5 | 0.0 | 0.00 | 0.00 | 0.00 | 77 | 1011.5 |
| 20260509021506 | 40 | 136 | 3.5 | 0.0 | 0.00 | 0.00 | 0.00 | 76 | 1011.4 |
| 20260509021004 | 40 | 136 | 3.5 | 0.0 | 0.00 | 0.00 | 0.00 | 74 | 1011.3 |
| 20260509020503 | 41 | 139 | 2.6 | 0.0 | 0.00 | 0.00 | 0.00 | 75 | 1011.4 |
| 20260509020003 | 41 | 125 | 2.6 | 0.0 | 0.00 | 0.00 | 0.00 | 73 | 1011.4 |
| 20260509015505 | 41 | 142 | 3.5 | 0.0 | 0.00 | 0.00 | 0.00 | 72 | 1011.4 |
| 20260509015003 | 42 | 147 | 3.5 | 0.0 | 0.00 | 0.00 | 0.00 | 71 | 1011.3 |
| 20260509014505 | 42 | 150 | 2.6 | 0.0 | 0.00 | 0.00 | 0.00 | 71 | 1011.3 |
| 20260509014102 | 43 | 197 | 1.7 | 0.0 | 0.00 | 0.00 | 0.00 | 71 | 1011.2 |
| 20260509013600 | 43 | 214 | 0.9 | 0.0 | 0.00 | 0.00 | 0.00 | 71 | 1011.1 |
| 20260509013103 | 44 | 214 | 0.0 | 0.0 | 0.00 | 0.00 | 0.00 | 70 | 1011.1 |
| 20260509012600 | 44 | 214 | 0.9 | 0.0 | 0.00 | 0.00 | 0.00 | 69 | 1011.1 |
| 20260509012059 | 45 | 214 | 0.9 | 0.0 | 0.00 | 0.00 | 0.00 | 68 | 1011.0 |
| 20260509011559 | 46 | 214 | 0.9 | 0.0 | 0.00 | 0.00 | 0.00 | 68 | 1011.0 |
| 20260509011058 | 46 | 217 | 1.7 | 0.0 | 0.00 | 0.00 | 0.00 | 67 | 1010.8 |
| 20260509010557 | 47 | 225 | 4.3 | 0.0 | 0.00 | 0.00 | 0.00 | 65 | 1010.6 |
| 20260509005556 | 47 | 245 | 8.7 | 0.0 | 0.00 | 0.00 | 0.00 | 66 | 1010.4 |
| 20260509005057 | 48 | 256 | 7.8 | 0.0 | 0.00 | 0.00 | 0.00 | 64 | 1010.3 |
| 20260509004608 | 48 | 271 | 8.7 | 0.0 | 0.00 | 0.00 | 0.00 | 64 | 1010.2 |
| 20260509004058 | 48 | 261 | 9.6 | 0.0 | 0.00 | 0.00 | 0.00 | 63 | 1010.2 |
| 20260509003559 | 48 | 256 | 10.4 | 0.0 | 0.00 | 0.00 | 0.00 | 62 | 1010.1 |
| 20260509003102 | 48 | 265 | 11.3 | 0.0 | 0.00 | 0.00 | 0.00 | 63 | 1010.1 |
| 20260509002555 | 48 | 259 | 11.3 | 0.0 | 0.00 | 0.00 | 0.00 | 63 | 1010.1 |
| 20260509002056 | 49 | 265 | 12.2 | 0.0 | 0.00 | 0.00 | 0.00 | 63 | 1010.0 |
| 20260509001555 | 49 | 267 | 12.2 | 0.0 | 0.00 | 0.00 | 0.00 | 62 | 1009.9 |
| 20260509001055 | 49 | 269 | 12.2 | 0.0 | 0.00 | 0.00 | 0.00 | 64 | 1009.8 |
| 20260509000554 | 49 | 263 | 11.3 | 0.0 | 0.00 | 0.00 | 0.00 | 63 | 1009.8 |
| 20260509000054 | 49 | 271 | 11.3 | 0.0 | 0.00 | 0.00 | 0.00 | 60 | 1009.9 |
| 20260508235555 | 49 | 251 | 11.3 | 0.0 | 0.00 | 0.00 | 0.00 | 60 | 1009.8 |
| 20260508235056 | 50 | 261 | 10.4 | 0.0 | 0.00 | 0.00 | 0.00 | 63 | 1009.8 |
| 20260508234557 | 50 | 258 | 9.6 | 0.0 | 0.00 | 0.00 | 0.00 | 60 | 1009.7 |
| 20260508234055 | 50 | 266 | 9.6 | 0.0 | 0.00 | 0.00 | 0.00 | 61 | 1009.8 |
| 20260508233555 | 50 | 268 | 10.4 | 0.0 | 0.00 | 0.00 | 0.00 | 63 | 1009.8 |
| 20260508233057 | 50 | 274 | 11.3 | 0.0 | 0.00 | 0.00 | 0.00 | 61 | 1009.8 |
| 20260508232553 | 50 | 271 | 13.0 | 0.0 | 0.00 | 0.00 | 0.00 | 61 | 1009.8 |
| 20260508232057 | 50 | 277 | 13.0 | 0.0 | 0.00 | 0.00 | 0.00 | 61 | 1009.6 |
| 20260508231558 | 50 | 275 | 11.3 | 0.0 | 0.00 | 0.00 | 0.00 | 61 | 1009.6 |
| 20260508231053 | 50 | 294 | 8.7 | 0.0 | 0.00 | 0.00 | 0.00 | 60 | 1009.6 |
| 20260508230552 | 50 | 277 | 8.7 | 0.0 | 0.00 | 0.00 | 0.00 | 61 | 1009.6 |
| 20260508230124 | 50 | 283 | 10.4 | 0.0 | 0.00 | 0.00 | 0.00 | 59 | 1009.6 |
| 20260508225553 | 50 | 278 | 11.3 | 0.0 | 0.00 | 0.00 | 0.00 | 62 | 1009.5 |
| 20260508225055 | 50 | 280 | 13.0 | 0.0 | 0.00 | 0.00 | 0.00 | 63 | 1009.6 |